CAPE
0 0 1 1 1 1 0 1 1 0 0 0 0 0 0 0 0 0 0 0 0 0 0 0 0 0 0 0 0 17 12 0 0 0 0 62 70 118 3 2 37 51 4 3 0 0 27 23 0 0 59 26 7 38
0 0 1 2 1 0 0 1 1 0 0 0 0 0 0 0 0 0 0 0 0 0 4 0 0 0 0 0 0 9 69 91 62 39 50 123 93 26 69 22 0 0 55 50 100 125 104 0 2 7 42 50 42 6
0 0 1 1 2 1 0 1 1 0 0 0 0 0 0 0 0 0 0 0 0 0 6 9 10 0 0 0 4 19 186 201 282 128 84 78 24 28 0 24 36 6 0 19 45 142 81 12 0 0 9 0 0 0
0 1 2 2 1 2 0 0 1 0 0 0 0 0 0 0 0 0 0 0 0 0 22 22 2 0 0 3 66 150 214 356 268 136 13 2 4 12 52 27 14 26 13 3 0 0 0 0 0 0 0 0 0 0
2 2 2 2 2 1 0 0 1 0 0 0 0 0 0 0 0 0 0 0 0 106 9 7 2 0 22 37 131 136 172 266 194 292 191 108 219 131 97 41 37 29 40 47 41 29 10 15 4 0 0 0 0 0
1 2 2 2 1 1 0 0 1 0 0 0 0 0 0 0 0 0 5 0 0 0 49 12 1 2 28 58 131 155 170 227 391 186 190 194 89 30 185 193 58 85 76 67 30 22 17 2 0 13 0 0 0 0
2 2 2 1 1 0 0 1 0 0 0 0 0 0 0 0 0 0 2 0 0 0 73 2 20 13 4 12 45 48 43 30 68 35 3 2 0 1 4 3 71 42 69 36 28 19 0 3 0 5 11 18 6 2
1 2 1 2 0 0 1 0 0 0 0 0 0 0 0 0 0 0 0 0 0 108 36 2 12 19 16 17 74 60 76 2 5 4 2 6 1 1 0 0 0 1 7 0 1 5 10 1 10 1 1 0 0 0
2 1 1 1 0 0 1 0 0 0 0 0 0 0 0 0 6 0 0 0 0 41 35 26 22 57 16 10 10 10 12 4 3 17 10 1 2 0 0 2 11 19 10 14 12 5 11 3 2 20 2 1 3 4
1 1 1 0 0 1 0 0 0 0 0 0 0 0 5 8 0 0 0 1 23 10 10 9 32 8 42 17 5 10 7 9 13 2 10 5 1 1 24 28 8 13 18 13 1 3 10 10 18 19 2 1 9 17
1 1 1 1 0 0 0 0 0 0 0 0 13 17 3 0 0 6 7 7 5 6 11 23 13 38 14 13 3 13 15 7 16 21 6 2 3 53 17 1 10 82 53 27 13 84 95 49 49 66 78 42 36 44
0 0 0 0 0 0 0 0 0 0 0 0 6 2 2 4 8 18 16 16 0 16 19 12 16 19 22 3 17 19 2 10 8 34 8 11 20 38 0 0 7 20 14 26 48 56 29 19 35 23 75 71 10 118
0 0 0 0 0 0 0 0 0 0 0 0 12 7 7 5 1 9 11 5 16 2 33 14 13 28 10 10 1 17 4 7 7 1 14 0 13 49 0 1 1 11 27 24 25 23 23 77 86 133 147 67 9 75
0 0 0 0 0 0 0 0 0 0 0 6 10 0 8 12 22 29 16 18 15 5 23 33 28 27 37 12 6 12 13 6 14 12 31 27 86 103 36 6 0 1 18 29 44 43 54 29 38 57 150 61 18 12
0 0 0 0 0 0 0 0 0 0 2 2 15 8 12 32 24 37 0 0 0 0 1 19 32 21 13 30 30 27 39 14 23 29 2 76 135 89 39 0 0 16 41 17 8 9 4 0 0 0 1 29 179 8
0 0 0 0 0 0 0 0 0 0 0 0 4 53 75 30 16 22 0 5 0 0 0 8 22 23 21 12 17 13 11 1 3 9 74 142 105 52 43 0 5 14 12 11 9 5 4 15 15 25 40 67 50 116
0 0 0 0 0 0 0 0 1 0 0 1 4 3 8 14 36 21 12 2 0 0 21 31 4 0 0 0 0 0 0 6 13 10 144 156 134 78 3 2 19 25 15 9 5 20 3 2 23 49 96 100 160 172
5 0 0 0 0 0 0 0 2 2 0 0 2 25 80 13 6 56 0 0 0 0 2 2 17 27 12 1 0 0 1 0 8 14 69 133 66 20 0 0 15 8 10 12 7 7 17 57 54 126 62 62 82 121
0 0 0 0 0 0 3 2 0 2 20 25 23 21 0 1 0 3 4 0 0 0 0 0 4 9 11 13 12 1 3 0 0 18 75 106 88 31 0 0 4 16 6 17 3 4 27 67 8 6 64 163 122 14
0 0 0 0 0 0 7 8 8 9 147 199 178 183 21 0 1 0 0 1 5 6 1 1 8 34 14 3 7 0 0 0 1 2 48 62 42 9 0 1 11 12 11 42 21 0 11 82 81 83 164 148 48 0
0 0 0 0 0 0 0 19 198 174 311 426 179 130 63 38 6 16 2 2 14 21 20 15 0 2 10 19 0 8 0 0 0 0 42 78 53 23 8 26 8 10 13 17 49 50 10 112 91 96 69 10 33 161
0 0 0 0 0 14 1 0 2 48 169 313 228 268 88 130 100 153 36 223 272 224 0 1 65 221 10 126 14 0 0 0 10 24 15 4 16 15 28 32 25 13 20 11 24 28 44 53 105 82 11 27 11 4
0 0 1 21 10 3 0 23 86 170 132 247 233 193 222 293 264 573 536 368 295 109 6 125 414 181 51 1 0 0 0 0 36 49 59 23 29 11 22 21 4 7 14 9 14 34 69 4 20 95 83 9 6 10
0 0 35 40 21 0 65 188 167 101 195 211 211 216 270 306 177 8 46 86 1 10 390 204 81 0 0 0 0 0 0 0 21 26 42 49 36 5 1 7 4 2 5 15 14 28 49 63 17 40 101 88 80 50
16 0 0 0 3 55 22 68 149 179 206 202 132 130 256 13 0 185 349 245 48 60 53 26 3 0 0 0 0 0 0 0 7 28 23 0 14 22 8 0 2 1 0 12 4 16 32 35 56 109 37 92 72 77
3 0 0 10 1 0 10 82 71 59 193 120 118 220 250 286 253 183 131 0 0 69 0 0 0 0 0 0 0 0 6 6 3 4 1 0 0 7 9 1 7 0 0 6 6 12 16 20 13 31 35 17 0 0
0 0 1 0 2 24 27 13 42 145 91 150 192 147 5 87 197 217 53 88 5 0 0 0 0 0 0 0 0 0 0 0 0 0 0 0 0 0 0 1 3 0 0 6 4 7 16 20 23 20 26 27 35 29
3 25 26 40 25 0 0 0 1 9 47 87 0 38 181 202 95 89 53 0 0 0 0 0 0 0 3 7 0 0 0 0 0 0 0 0 0 0 0 0 0 0 0 0 1 6 7 19 20 26 32 28 37 16
5 18 38 38 38 34 22 3 0 10 159 18 68 77 21 199 80 0 0 0 0 0 0 0 0 1 0 0 0 0 0 0 0 0 0 0 0 0 0 0 0 0 0 0 0 0 0 0 0 0 9 22 20 11
8 30 17 12 27 18 20 31 15 12 42 21 3 23 73 32 0 0 2 0 0 0 0 0 0 1 0 0 0 0 0 0 0 0 0 1 1 0 0 0 0 0 0 0 0 0 0 0 0 0 1 17 25 14
12 22 26 18 15 7 28 43 14 12 15 86 160 153 61 7 0 0 0 0 1 4 2 0 0 0 0 0 0 0 0 0 0 0 0 0 0 0 0 0 0 0 0 1 4 2 0 0 4 19 27 28 29 6
7 2 5 21 20 21 16 15 0 0 54 39 8 118 160 183 58 6 5 6 3 0 0 0 0 0 0 0 0 0 0 0 0 0 0 0 0 0 0 0 0 0 0 0 0 13 3 9 25 21 13 16 10 11
22 26 14 16 3 0 0 1 67 150 28 10 75 199 32 27 3 13 11 0 0 5 0 0 0 0 0 0 0 0 1 1 0 0 0 0 0 0 0 0 0 0 0 0 0 8 3 3 21 16 22 8 9 17
CIN
-0 -0 -0 -0 -0 -0 -0 -0 -0 -0 -0 -0 -0 -0 -0 -0 -0 -0 -0 -0 -0 -0 -12 -0 -0 -0 -0 -0 -0 -13 -6 -8 -0 -0 -0 -5 -13 -7 -30 -20 -23 -2 -1 -1 -0 -0 -4 -27 -0 -0 -40 -34 -19 -4
-1 -0 -0 -0 -0 -0 -0 -0 -0 -0 -0 -0 -0 -0 -0 -0 -0 -0 -0 -0 -0 -0 -3 -0 -0 -0 -0 -0 -0 -11 -1 -5 -13 -5 -14 -16 -15 -26 -1 -10 -0 -0 -5 -4 -2 -3 -26 -4 -7 -9 -26 -29 -44 -48
-0 -0 -0 -0 -0 -0 -0 -0 -0 -0 -0 -0 -0 -0 -0 -0 -0 -0 -0 -0 -0 -0 -5 -6 -32 -0 -0 -5 -7 -47 -8 -23 -9 -41 -23 -38 -47 -3 -0 -4 -2 -5 -0 -19 -11 -3 -6 -4 -0 -0 -36 -0 -0 -0
-0 -0 -0 -0 -0 -0 -0 -0 -0 -0 -0 -0 -0 -0 -0 -0 -0 -0 -0 -0 -0 -0 -7 -36 -2 -0 -0 -11 -51 -20 -2 -5 -7 -19 -26 -24 -13 -40 -3 -3 -8 -10 -9 -1 -0 -0 -0 -0 -0 -0 -0 -0 -0 -0
-0 -0 -0 -0 -0 -0 -0 -0 -0 -0 -0 -0 -0 -0 -0 -0 -0 -0 -0 -0 -0 -6 -27 -11 -1 -0 -30 -46 -12 -12 -2 -1 -3 -2 -2 -11 -26 -26 -21 -14 -14 -38 -5 -3 -6 -1 -9 -3 -6 -0 -0 -0 -0 -0
-0 -0 -0 -0 -0 -0 -0 -0 -0 -0 -0 -0 -0 -0 -0 -0 -0 -0 -1 -0 -0 -0 -30 -1 -0 -6 -41 -22 -17 -34 -32 -21 -2 -13 -3 -0 -28 -27 -2 -9 -10 -15 -12 -6 -14 -9 -4 -16 -0 -2 -0 -0 -0 -0
-0 -0 -0 -0 -0 -0 -0 -0 -0 -0 -0 -0 -0 -0 -0 -0 -0 -0 -20 -0 -0 -0 -25 -24 -0 -1 -40 -46 -32 -34 -45 -70 -27 -20 -0 -0 -0 -0 -1 -4 -5 -5 -9 -30 -35 -16 -1 -10 -0 -5 -1 -3 -6 -2
-0 -0 -0 -0 -0 -0 -0 -0 -0 -0 -0 -0 -0 -0 -0 -0 -0 -4 -0 -0 -0 -32 -14 -20 -8 -2 -1 -10 -12 -17 -17 -8 -8 -0 -1 -0 -0 -0 -0 -0 -0 -9 -10 -0 -0 -3 -4 -10 -0 -2 -0 -0 -0 -0
-0 -0 -0 -0 -0 -0 -0 -0 -0 -0 -0 -0 -0 -0 -0 -0 -2 -0 -0 -0 -0 -60 -18 -1 -3 -2 -1 -8 -12 -3 -10 -9 -1 -0 -4 -1 -0 -0 -0 -5 -10 -35 -1 -1 -2 -3 -1 -0 -1 -1 -1 -1 -1 -1
-0 -0 -0 -0 -0 -0 -0 -0 -0 -0 -0 -0 -0 -1 -4 -1 -0 -0 -0 -0 -11 -0 -2 -13 -1 -7 -5 -0 -1 -13 -2 -2 -0 -6 -12 -2 -1 -3 -4 -1 -2 -5 -2 -0 -3 -2 -1 -1 -2 -1 -12 -2 -1 -0
-0 -0 -0 -0 -0 -0 -0 -0 -0 -0 -0 -0 -1 -6 -4 -0 -1 -0 -0 -3 -2 -1 -4 -2 -1 -2 -5 -2 -2 -2 -1 -1 -0 -1 -1 -0 -1 -8 -2 -0 -0 -5 -12 -5 -5 -2 -3 -6 -9 -1 -0 -0 -3 -5
-0 -0 -0 -0 -0 -0 -0 -0 -0 -0 -0 -0 -10 -7 -2 -3 -0 -0 -6 -1 -0 -10 -1 -3 -20 -3 -5 -1 -2 -1 -1 -2 -1 -2 -2 -5 -5 -4 -0 -0 -1 -0 -7 -3 -0 -3 -10 -18 -8 -19 -5 -3 -27 -4
-0 -0 -0 -0 -0 -0 -0 -0 -0 -0 -0 -0 -4 -7 -1 -0 -0 -8 -1 -3 -3 -4 -2 -3 -1 -1 -9 -2 -1 -2 -0 -2 -4 -1 -4 -0 -3 -1 -1 -7 -0 -0 -0 -1 -2 -12 -1 -1 -7 -0 -1 -12 -22 -17
-0 -0 -0 -0 -0 -0 -0 -0 -0 -0 -0 -2 -4 -0 -1 -0 -16 -3 -1 -3 -2 -3 -1 -3 -9 -10 -2 -22 -6 -1 -2 -4 -2 -3 -5 -6 -0 -1 -10 -16 -0 -3 -9 -0 -1 -2 -2 -1 -10 -13 -2 -24 -20 -26
-0 -0 -0 -0 -0 -0 -0 -0 -0 -0 -0 -1 -2 -2 -6 -8 -11 -3 -0 -0 -0 -0 -1 -2 -5 -5 -7 -2 -3 -4 -1 -1 -5 -2 -23 -12 -4 -3 -33 -0 -0 -0 -1 -1 -2 -1 -3 -0 -0 -0 -2 -1 -14 -25
-0 -0 -0 -0 -0 -0 -0 -0 -0 -0 -0 -0 -0 -9 -24 -38 -6 -2 -0 -2 -0 -0 -0 -4 -6 -3 -8 -5 -5 -1 -3 -6 -2 -17 -4 -14 -12 -18 -31 -0 -1 -3 -11 -1 -1 -1 -1 -1 -1 -1 -4 -2 -5 -9
-0 -0 -0 -0 -0 -0 -0 -0 -1 -0 -0 -0 -2 -7 -24 -16 -2 -14 -4 -1 -0 -0 -2 -5 -2 -0 -0 -0 -1 -0 -4 -5 -5 -13 -18 -30 -25 -27 -18 -0 -1 -2 -0 -1 -1 -1 -1 -5 -10 -3 -3 -1 -11 -1
-54 -0 -0 -0 -0 -0 -0 -0 -0 -1 -0 -0 -5 -27 -24 -3 -2 -23 -0 -0 -0 -0 -1 -3 -1 -3 -1 -0 -2 -0 -0 -0 -0 -17 -16 -32 -43 -37 -0 -0 -1 -1 -0 -0 -9 -5 -1 -6 -1 -2 -14 -13 -1 -2
-0 -0 -0 -0 -0 -0 -0 -1 -0 -0 -28 -55 -61 -30 -0 -0 -1 -2 -0 -0 -0 -0 -0 -0 -3 -2 -2 -16 -4 -21 -0 -0 -0 -3 -26 -26 -22 -24 -0 -0 -0 -1 -0 -5 -1 -2 -1 -9 -24 -4 -10 -0 -1 -7
-0 -0 -0 -0 -0 -0 -0 -0 -0 -36 -5 -1 -5 -5 -19 -1 -1 -0 -0 -1 -2 -1 -2 -2 -1 -2 -37 -44 -12 -0 -0 -0 -0 -0 -18 -10 -1 -5 -0 -0 -4 -5 -3 -1 -1 -0 -1 -1 -10 -4 -3 -2 -12 -0
-0 -0 -0 -0 -0 -0 -0 -31 -1 -1 -1 -0 -5 -4 -13 -28 -69 -58 -2 -3 -2 -3 -2 -17 -0 -118 -88 -87 -0 -38 -0 -0 -0 -0 -3 -5 -25 -38 -22 -1 -11 -2 -4 -2 -1 -3 -4 -4 -12 -11 -5 -29 -45 -18
-0 -0 -0 -0 -0 -1 -12 -24 -15 -21 -7 -9 -2 -4 -2 -3 -9 -12 -60 -11 -3 -33 -0 -2 -23 -26 -72 -8 -12 -0 -0 -0 -0 -12 -26 -0 -2 -13 -1 -2 -2 -1 -3 -5 -3 -3 -1 -4 -1 -1 -33 -3 -11 -7
-0 -0 -14 -13 -10 -19 -0 -38 -1 -1 -0 -2 -1 -1 -6 -3 -2 -17 -4 -3 -4 -96 -72 -84 -14 -60 -70 -18 -0 -0 -0 -0 -0 -1 -1 -3 -3 -5 -2 -4 -1 -2 -3 -10 -5 -5 -2 -4 -18 -5 -7 -64 -29 -4
-0 -0 -0 -0 -2 -0 -1 -1 -2 -7 -4 -4 -2 -1 -4 -3 -45 -17 -46 -99 -9 -30 -6 -13 -5 -0 -0 -0 -0 -0 -0 -0 -0 -0 -1 -3 -3 -5 -1 -2 -3 -3 -2 -4 -3 -2 -2 -4 -8 -1 -2 -3 -4 -2
-2 -0 -0 -0 -2 -1 -8 -10 -0 -1 -6 -3 -2 -2 -7 -78 -0 -30 -2 -10 -44 -29 -24 -22 -10 -0 -0 -0 -0 -0 -0 -0 -2 -2 -1 -0 -4 -3 -4 -0 -4 -3 -0 -3 -3 -2 -2 -2 -2 -6 -10 -3 -29 -1
-3 -0 -0 -7 -1 -0 -2 -1 -4 -26 -3 -23 -16 -6 -40 -16 -3 -5 -51 -0 -0 -53 -5 -0 -0 -0 -0 -0 -0 -0 -4 -1 -2 -2 -1 -0 -0 -1 -2 -2 -3 -0 -0 -3 -1 -1 -1 -5 -14 -2 -2 -12 -0 -0
-0 -0 -1 -0 -4 -4 -1 -1 -2 -2 -13 -7 -9 -24 -65 -28 -1 -11 -59 -30 -2 -0 -0 -0 -0 -0 -0 -0 -0 -0 -1 -0 -0 -0 -0 -0 -0 -0 -1 -2 -2 -0 -0 -2 -2 -2 -2 -1 -2 -1 -2 -1 -1 -2
-1 -1 -1 -2 -1 -0 -0 -0 -1 -4 -3 -19 -0 -51 -1 -1 -41 -7 -3 -0 -0 -0 -0 -0 -0 -0 -2 -1 -2 -0 -0 -0 -0 -0 -0 -0 -0 -0 -0 -0 -0 -0 -0 -0 -0 -1 -3 -1 -1 -3 -1 -2 -2 -11
-2 -1 -3 -4 -4 -4 -1 -1 -0 -3 -13 -69 -51 -22 -20 -15 -35 -0 -0 -0 -0 -0 -0 -0 -0 -2 -0 -0 -0 -0 -0 -0 -0 -0 -0 -0 -0 -0 -0 -0 -0 -0 -0 -0 -0 -0 -0 -0 -0 -0 -1 -2 -2 -3
-2 -1 -5 -5 -1 -4 -1 -4 -4 -6 -2 -3 -3 -3 -77 -79 -0 -0 -1 -0 -0 -0 -0 -0 -0 -1 -0 -0 -0 -0 -0 -0 -0 -2 -1 -0 -3 -0 -0 -0 -0 -0 -0 -0 -0 -0 -0 -0 -0 -0 -1 -2 -2 -2
-3 -1 -2 -2 -5 -15 -5 -2 -3 -2 -3 -12 -82 -49 -57 -48 -0 -0 -0 -0 -2 -0 -0 -0 -0 -0 -0 -0 -0 -0 -0 -0 -0 -0 -0 -0 -0 -0 -0 -0 -0 -0 -0 -2 -3 -2 -2 -0 -5 -4 -2 -1 -2 -3
-5 -21 -22 -3 -5 -2 -3 -1 -0 -0 -85 -38 -11 -12 -14 -3 -1 -18 -1 -2 -5 -3 -0 -0 -0 -0 -0 -0 -0 -0 -0 -0 -0 -0 -0 -0 -0 -0 -0 -0 -0 -0 -0 -0 -0 -2 -3 -5 -3 -1 -1 -1 -3 -3
-1 -2 -3 -3 -1 -0 -0 -1 -0 -22 -58 -23 -16 -3 -7 -5 -0 -0 -3 -0 -0 -1 -0 -0 -0 -0 -0 -0 -0 -0 -0 -0 -0 -0 -0 -0 -0 -0 -0 -0 -0 -0 -0 -0 -0 -3 -6 -1 -1 -2 -2 -2 -3 -1
Wind_Speed
29 28 27 24 21 18 15 16 14 15 21 21 20 18 16 16 17 16 16 17 17 17 17 18 18 17 20 17 18 14 14 15 18 19 22 19 17 17 19 22 22 19 17 22 25 30 29 13 17 24 17 13 11 13
28 27 26 22 17 13 11 12 11 12 15 15 18 16 16 16 16 15 16 16 18 10 19 18 19 19 18 20 21 21 21 17 19 20 21 17 19 18 17 21 19 23 20 21 19 19 15 15 15 14 14 13 13 13
25 25 23 19 14 12 11 9 9 8 11 12 17 16 16 16 16 16 16 17 9 9 9 15 18 21 20 19 20 19 18 19 19 21 21 17 20 21 24 24 25 19 23 22 20 12 14 14 16 17 16 14 15 14
25 23 20 17 12 11 7 7 8 12 11 18 17 16 16 16 16 16 15 20 10 10 13 13 15 24 19 13 14 15 17 15 19 21 22 24 24 20 24 21 23 22 19 21 25 29 21 18 20 17 16 14 14 15
25 23 18 15 12 8 5 7 9 19 19 18 17 17 16 16 16 16 13 15 16 13 15 14 17 20 23 19 18 16 10 16 20 19 20 20 20 22 25 23 18 20 21 25 25 21 24 26 18 15 16 13 12 13
26 22 17 15 11 7 9 10 12 19 19 18 17 17 16 16 15 14 16 16 18 12 15 14 17 15 20 24 23 22 21 18 13 14 14 16 19 20 22 25 18 21 21 22 26 24 25 24 25 15 13 14 13 14
28 22 16 10 8 10 12 12 13 19 19 18 17 17 16 15 15 14 14 13 11 14 16 15 15 16 19 16 17 18 18 18 16 14 15 16 18 22 22 23 20 23 27 26 27 27 26 24 23 22 21 17 15 17
27 20 14 11 9 10 9 12 11 17 18 19 17 16 16 15 15 15 16 16 16 15 14 14 15 14 13 15 15 15 15 15 14 15 14 15 15 16 15 15 23 23 23 27 28 28 27 27 25 23 20 22 21 21
22 18 13 11 10 10 12 13 12 14 18 18 16 16 16 16 16 15 16 16 14 14 13 15 13 15 16 15 15 14 13 13 13 13 12 13 12 8 14 14 17 14 22 24 20 21 17 17 22 22 21 18 19 20
22 16 13 11 9 11 12 6 15 13 19 17 16 17 16 15 17 17 15 16 15 15 13 13 15 14 16 14 14 12 13 13 10 11 12 10 8 9 10 9 21 18 14 18 17 19 19 21 22 23 22 26 23 21
24 20 16 11 12 6 5 10 13 14 17 18 18 15 14 10 15 13 14 15 14 13 14 13 15 14 14 12 13 13 13 12 11 12 10 9 9 12 12 16 15 15 15 14 14 18 21 22 27 24 24 20 20 22
22 23 20 14 5 7 8 14 14 17 14 16 16 15 10 16 16 15 14 14 13 13 14 14 13 14 16 14 12 12 12 11 10 11 11 11 14 12 13 14 16 16 17 18 15 19 18 21 23 25 22 25 31 28
18 18 16 10 10 8 14 14 17 19 18 17 15 17 17 17 16 16 15 14 14 14 14 14 14 13 14 14 13 12 12 10 12 10 10 7 10 10 12 16 18 16 12 14 17 21 23 21 26 24 24 30 32 35
15 13 13 13 9 14 15 16 17 17 17 17 18 19 19 18 18 16 11 16 15 15 14 14 13 12 12 13 12 11 11 11 10 10 10 17 10 13 14 16 16 17 18 17 17 18 19 22 20 21 25 26 28 30
15 13 12 14 15 15 18 18 18 18 18 18 19 19 20 19 18 16 16 12 13 12 13 13 14 11 12 11 12 13 12 11 11 13 10 10 10 12 15 19 18 16 15 19 19 23 25 27 30 33 33 32 30 30
16 14 14 15 13 15 17 15 15 16 19 19 20 20 19 17 15 12 13 12 13 13 12 11 11 11 10 11 12 12 13 11 12 18 18 13 12 14 17 18 17 17 17 20 23 23 24 27 29 30 30 31 31 25
16 14 14 14 10 11 13 15 16 18 20 19 20 23 19 16 13 11 11 11 12 10 10 10 10 9 10 8 7 10 9 12 11 14 15 14 14 14 17 18 17 15 18 21 20 21 24 23 23 28 28 25 25 28
14 13 12 12 10 14 17 18 19 19 21 24 24 21 22 10 10 12 10 10 10 9 8 8 8 4 4 5 6 9 9 13 17 14 13 13 14 15 15 17 16 17 18 19 22 19 18 24 21 18 23 20 9 18
20 17 11 11 13 15 16 18 19 20 23 23 25 21 18 14 13 15 10 9 9 8 5 8 9 9 4 5 14 21 10 11 12 14 15 13 13 15 16 16 15 15 16 17 20 20 20 23 26 14 11 12 11 10
18 15 10 11 14 16 15 17 19 21 20 20 24 25 11 11 11 8 8 8 6 4 2 2 4 3 14 16 16 9 5 9 12 12 12 12 12 15 15 17 17 11 13 14 18 21 20 22 21 20 16 17 20 20
12 12 11 11 15 17 19 16 18 21 22 22 25 24 20 7 8 8 6 5 1 3 5 12 4 5 2 4 7 8 14 15 14 12 15 12 13 13 12 13 14 14 17 17 17 18 19 20 17 16 14 9 13 15
14 10 16 12 18 17 19 22 20 20 22 25 26 26 5 4 3 5 4 9 6 12 21 4 1 4 10 11 14 12 15 16 15 13 13 12 11 10 11 13 14 15 14 16 16 19 18 18 16 15 13 13 11 12
19 16 17 17 17 18 20 23 23 23 21 20 24 13 5 1 9 17 8 2 15 24 13 13 17 21 16 16 16 17 18 17 9 12 11 12 13 13 13 14 15 14 16 16 16 18 16 16 15 15 8 14 16 12
19 17 18 17 10 17 18 20 24 24 24 27 25 13 10 12 11 10 4 18 27 14 19 22 19 19 18 16 16 17 18 11 9 12 12 11 12 14 14 15 15 16 17 16 17 17 17 15 14 15 14 10 12 16
14 16 15 20 21 18 21 22 26 26 26 23 18 4 15 17 21 23 23 22 20 20 28 27 21 16 15 15 16 17 15 11 13 11 13 12 14 15 15 15 15 18 15 17 16 17 17 16 16 16 13 13 16 16
19 15 13 18 19 19 22 21 23 24 25 20 20 19 18 9 10 14 12 16 15 25 29 27 18 17 18 15 15 17 12 12 14 12 15 13 13 13 14 14 12 15 14 15 16 16 16 18 16 14 16 15 13 14
20 22 25 27 24 22 24 25 24 24 16 23 14 11 12 8 14 18 13 13 19 24 25 20 20 19 16 14 15 13 13 15 15 18 15 15 16 16 15 14 15 17 15 16 16 15 15 15 16 15 15 14 14 13
25 23 25 25 25 25 26 25 24 24 4 17 23 24 15 19 20 23 28 25 23 23 23 21 20 19 15 13 13 15 16 17 16 16 16 16 16 16 18 19 17 17 18 19 18 16 15 15 15 15 15 14 14 13
25 27 27 26 25 25 24 24 23 23 15 12 11 12 10 19 22 28 26 22 21 21 21 18 20 18 18 17 16 16 16 16 16 16 14 15 14 14 15 16 16 15 15 16 16 18 19 19 18 15 14 14 14 14
26 26 27 27 26 26 25 23 22 22 15 23 22 18 19 21 22 12 14 17 17 17 18 18 17 13 15 15 15 15 14 14 14 14 15 15 14 15 14 15 15 15 15 16 16 16 15 14 16 15 14 13 13 15
24 26 27 27 25 24 23 23 23 23 24 20 18 18 16 15 16 19 20 19 17 17 17 18 15 12 13 13 14 14 13 14 16 16 17 18 16 15 14 14 14 14 14 14 15 14 15 14 13 13 13 13 14 12
26 25 24 22 21 20 20 22 21 18 16 15 14 12 15 15 17 16 17 16 16 16 18 16 14 16 16 17 17 15 14 16 14 14 14 14 15 15 14 13 13 13 13 13 13 14 14 13 13 14 15 15 14 13
23 21 21 21 19 18 17 18 9 11 15 16 14 15 17 18 20 19 18 21 19 16 15 14 14 16 17 16 15 13 12 11 13 15 14 13 15 12 13 12 12 12 13 12 13 13 13 14 14 14 15 14 12 12
Wind_Direction
351 352 353 355 360 6 13 16 21 26 351 346 315 285 269 275 287 279 259 296 278 240 12 357 351 347 339 346 332 347 339 333 314 304 295 300 300 298 291 284 284 292 289 274 271 264 267 298 290 277 287 296 300 286
349 350 353 355 359 5 13 19 30 31 27 32 280 260 265 272 276 266 216 332 316 91 356 2 358 355 351 336 326 327 322 325 321 311 307 311 300 295 290 284 284 278 291 284 294 282 293 296 303 304 302 294 292 278
348 348 350 354 356 2 10 29 41 85 56 358 253 252 261 265 269 269 243 294 179 104 94 42 37 6 356 350 335 326 333 325 319 314 309 315 293 293 283 280 276 280 283 281 287 306 299 298 296 295 299 292 288 281
344 344 347 352 358 2 19 46 50 168 103 242 243 248 247 252 256 258 229 312 127 106 55 52 56 16 21 39 20 352 339 340 318 313 305 292 295 303 288 292 279 281 289 281 276 278 290 294 295 296 294 297 287 286
347 346 348 353 358 10 54 62 59 186 210 228 236 240 237 242 251 241 197 61 53 93 65 69 52 44 34 43 39 42 59 351 313 318 306 305 306 304 278 287 296 291 285 277 276 294 290 288 293 291 292 295 296 290
348 349 353 358 13 84 101 92 102 160 228 222 233 230 227 236 250 179 116 72 17 139 92 80 71 84 65 34 10 359 1 353 38 2 354 328 325 307 290 282 306 299 299 295 283 292 291 290 298 285 283 284 287 291
348 352 359 17 55 88 104 93 98 187 229 223 222 217 218 229 211 172 137 118 178 133 92 94 90 92 75 82 77 61 24 36 54 52 8 343 336 298 289 287 294 299 287 289 288 290 288 289 288 285 287 276 283 284
352 2 17 34 58 82 52 87 76 236 231 213 219 220 214 209 180 134 96 117 132 116 107 99 91 91 99 81 87 99 104 100 93 75 74 50 37 5 343 335 294 302 306 300 293 282 287 296 287 286 283 283 280 280
3 13 30 42 70 74 82 88 86 245 222 214 226 227 209 185 157 134 127 141 127 114 122 102 105 88 90 86 85 89 102 99 110 110 117 107 75 72 5 352 343 341 317 313 310 304 303 296 290 288 288 284 282 280
16 26 48 56 56 77 78 359 233 246 211 220 228 211 190 232 149 126 117 112 118 114 124 119 98 102 93 89 89 96 95 95 106 112 109 115 132 157 124 109 342 351 354 336 326 315 306 296 289 285 282 283 285 284
34 50 59 47 70 49 2 247 238 228 216 221 204 221 298 55 140 123 165 136 126 122 110 117 88 96 89 94 90 99 89 90 94 86 97 104 115 74 65 19 16 15 6 357 338 325 314 308 295 291 288 286 286 286
38 62 67 65 2 13 263 230 233 229 257 246 237 273 211 162 169 168 139 134 133 135 116 100 100 87 73 72 88 93 82 96 95 91 85 77 58 75 41 28 17 8 358 349 349 334 327 314 304 303 299 288 289 287
22 56 54 27 31 289 243 245 238 240 241 236 256 226 227 197 198 167 156 134 102 89 88 98 84 82 72 72 69 76 75 90 62 81 73 69 77 72 41 16 8 6 7 1 348 337 331 323 311 303 298 295 292 289
1 7 28 38 320 262 258 255 252 245 246 241 233 229 213 220 201 160 139 25 62 60 86 87 78 90 84 73 76 75 74 69 67 70 53 46 73 47 26 14 10 3 357 357 352 347 338 326 322 314 310 300 295 285
6 22 0 305 291 282 261 257 253 246 250 248 236 213 188 179 192 200 327 37 46 80 83 93 69 79 69 75 78 75 66 65 59 43 45 59 66 34 23 15 8 10 7 359 355 345 338 328 319 311 306 303 295 292
339 359 1 330 306 274 258 255 256 264 258 258 245 209 199 179 174 128 58 82 52 76 96 88 76 67 78 78 72 68 66 60 50 26 32 55 51 34 18 13 13 12 5 0 351 350 345 338 330 322 312 304 298 299
324 331 351 359 339 271 265 267 267 266 259 263 258 217 182 184 76 166 53 65 68 87 84 85 64 64 78 67 89 74 60 41 38 27 35 35 32 33 24 20 19 22 15 6 4 3 357 354 350 327 317 320 308 295
355 354 1 10 37 293 273 268 266 265 260 244 229 195 213 6 131 177 71 97 80 112 122 64 45 45 35 39 46 46 84 48 33 36 36 38 39 36 30 26 30 25 23 20 17 19 24 1 4 9 318 263 179 237
313 316 358 358 319 298 289 272 265 268 250 253 236 206 285 157 158 191 131 110 121 142 82 43 36 31 40 44 8 348 10 40 29 38 44 45 47 42 38 37 35 40 33 36 34 33 33 17 330 290 185 210 297 268
316 335 352 332 315 295 294 280 264 264 266 270 263 226 145 147 151 136 142 146 136 127 140 73 73 48 18 14 1 24 72 37 31 35 44 42 53 47 44 36 43 51 53 50 46 42 43 24 335 359 8 41 68 77
358 5 360 331 311 288 283 293 273 266 267 274 246 199 192 134 156 167 162 155 190 262 254 3 306 348 239 18 80 109 55 37 28 36 34 56 49 53 65 61 59 60 50 54 52 51 55 48 14 12 3 293 231 231
334 18 314 329 292 291 285 261 267 272 268 250 242 245 7 17 161 334 221 229 249 351 4 16 0 30 40 57 63 50 32 26 28 40 40 41 54 86 73 54 58 54 61 61 61 57 64 72 67 349 349 322 344 351
278 301 299 294 295 289 276 252 258 254 266 277 247 182 156 256 328 339 2 327 349 338 59 65 44 24 48 42 42 28 19 28 54 54 64 57 57 72 58 61 57 59 62 60 66 70 80 80 95 84 39 343 293 357
283 292 286 291 316 287 274 264 249 250 262 253 270 330 347 340 352 8 22 356 353 263 44 26 34 30 33 41 29 28 29 56 75 71 66 72 75 60 63 58 63 63 62 74 72 75 85 94 102 123 153 134 350 324
297 286 296 266 260 274 261 249 238 241 234 217 208 7 334 339 321 325 341 356 2 3 356 9 15 23 31 32 32 27 33 59 46 67 61 68 55 64 62 67 66 56 76 75 79 78 81 97 100 102 138 162 210 234
273 294 297 264 259 256 241 250 244 210 241 298 295 320 329 314 13 356 2 13 317 352 354 3 20 27 26 35 32 28 57 62 52 65 56 66 61 60 65 63 81 74 82 81 84 88 89 85 101 119 112 118 137 180
263 247 232 228 243 251 246 241 259 258 317 268 342 1 35 36 360 352 25 42 18 10 8 24 28 31 37 48 41 66 60 58 60 45 56 64 57 54 63 68 66 70 81 85 84 90 94 100 101 111 113 129 124 142
217 240 232 232 236 233 229 236 243 237 357 322 306 285 2 343 342 348 352 4 14 21 21 26 35 40 49 54 69 64 60 58 69 66 60 54 57 58 48 47 50 50 61 53 69 85 97 102 99 105 114 122 122 144
218 214 226 231 233 230 230 227 218 224 345 14 33 8 9 344 349 351 354 6 20 26 28 37 31 40 58 58 61 62 64 68 55 59 69 62 66 67 71 61 73 87 86 73 64 61 56 58 70 92 102 112 113 120
205 222 226 219 211 206 212 217 225 259 323 296 312 339 349 359 3 52 43 28 29 31 34 32 31 57 56 60 63 60 64 63 80 61 54 56 61 66 76 73 80 90 88 81 91 87 87 109 98 111 122 121 108 88
207 211 212 209 203 204 208 221 234 240 255 309 337 346 23 39 49 33 28 30 39 39 38 34 50 65 61 62 56 53 61 47 41 37 34 38 55 64 78 85 88 89 91 99 100 101 94 104 117 111 121 109 95 112
183 181 183 183 182 186 187 201 205 193 342 4 22 49 50 45 38 44 45 49 45 42 35 50 64 50 43 41 45 54 49 47 62 69 66 68 60 64 77 91 87 87 92 103 105 97 91 107 108 98 87 89 97 99
164 153 162 177 188 162 157 166 155 9 8 13 50 53 51 40 31 36 47 33 35 44 54 69 56 48 48 55 57 61 69 89 51 39 46 43 32 66 79 91 85 90 96 108 120 104 91 97 97 89 80 86 122 123